STARLINK-33808, 63767

Orbit data source: Space-Track

STARLINK-33808, 63767 is a payload satellite owned by SpaceX/Seattle (US) in LEO that was launched on Tue, 29 Apr 2025 UTC via an FALCON 9 launch vehicle from the Air Force Eastern Test Range (AFETR). Payload-class satellites include a variety of spacecraft equipped with specific instruments for various scientific and technological missions. These include communications satellites like Starlink; space stations such as the ISS; scientific satellites like the Hubble; Earth observation satellites from companies like Planet Labs, Umbra, and HawkEye 360; GPS; miniature CubeSats for education and research; and military/defense satellites.

Loading next visibility...
Identifier
63767, 2025-089S
Orbit
LEO
Country
Flag of USUS
Related business
Manufacturer
SpaceX/Seattle
Mission
Operational Commercial Communications
Bus & Motor
STARLINK V2MO, Unknown motor
Mass
575 kg wet, ~530 kg dry
Launch date (UTC)
2025-04-29 (1 year ago)
Launch vehicle
FALCON 9
Launch site
Air Force Eastern Test Range (AFETR)
Object type
Payload
Rocket body
Debris
Shape & HBR
Box + 2 Pan, 17.7 m
Radar Cross Section
36.964 m², Large (>1 m²)

Expand to show TLE details & history
Last TLE update: 12 hours ago

TLE from 12 hours ago
0 STARLINK-33808
1 63767U 25089S   26171.38629800  .00006086  00000-0  23047-3 0  9995
2 63767  42.9986 185.2565 0001400 269.3217  90.7474 15.27585743 64666
Epoch: 2026-06-20T09:16Z
TLE epoch observation values (Epoch: 2026-06-20T09:16:16.147Z)
Latitude
-0.00002°
Longitude
137.58753°
Altitude
482.82 km
Speed
7.626 km/s
True Right ascension
12h 21m 01s
True Declination
0° 00' 00"
Sunlit
Object was in daylight at epoch
Visualization orbit readout
Latitude
Unknown
Longitude
Unknown
Altitude
Unknown
Speed
Unknown
Apparent Right ascension
Unknown
Apparent Declination
Unknown
Sunlit
N/A
Visualization observer readout
Local Sidereal Time
08:33:33
Azimuth
Unknown
Elevation
Unknown
Doppler factor
Unknown
Orbital elements
Apogee altitude
485.938 km
Perigee altitude
484.016 km
Semi-major axis
6,863.114 km
Eccentricity
0.00014
Inclination
42.9986°
RAAN
185.2565°
Arg. of periapsis
269.3217°
True anomaly
90.76344°
Mean anomaly
90.7474°
Eccentric anomaly
90.75542°
Mean motion
3.81734 °/min
Orbital period
94.31 mins
BSTAR
0.00023047
Loading maneuver chart data...
Computing Atmospheric mass density...
Loading historical data...
Loading historical data...
Loading historical data...
Loading historical data...
Loading historical data...
Loading historical data...
Loading historical data...

Documentation

Showing up to 5 results
|